[[{"header":{"parameterUnit":"m.s-1","parameterCategory":1,"la1":30.2991,"la2":30.254,"lo1":-89.0895,"lo2":-89.0444,"dy":0.0017,"dx":0.0017,"nx":28,"ny":28,"refTime":"2024-03-19T09:00:00:Z","depth":0,"parameterNumber":2,"parameterNumberName":"U-component_of_WINDS"},"data":[0,0,0,0,0,0,0,0,0,0,0,0,0,0,0,0,0,0,0,0,0,0,0,0,0,0,0,0,0,0,0,0,0,0,0,0,0,0,0,0,0,0,0,0,0,0,0,0,0,0,0,0,0,0,0,0,0,0,1.3102,1.3103,0,1.3176,1.3177,1.3178,1.3189,1.3189,1.3188,1.3187,1.3261,1.3263,1.3266,0,0,0,0,0,0,0,0,0,0,0,0,0,1.2969,1.2972,1.3102,1.3103,1.3104,1.3176,1.3177,1.3178,1.3189,1.3189,1.3188,1.3187,1.326,1.3263,1.3266,0,0,0,0,0,0,0,0,0,0,0,0,0,1.3033,1.2973,1.3102,1.3119,1.3121,1.3176,1.3177,1.3178,1.319,1.3189,1.3188,1.3187,1.3259,1.3262,1.3266,1.3309,0,0,1.3278,1.3279,0,0,0,0,0,0,0,0,1.303,1.3038,1.3115,1.3118,1.312,1.3173,1.3157,1.3222,1.319,1.3164,1.3187,1.3186,1.3232,1.3238,1.3254,1.3312,1.3315,1.3278,1.328,1.3282,1.3283,0,0,0,0,0,0,0,1.3025,1.3035,1.3131,1.3116,1.3119,1.3122,1.313,1.3169,1.3202,1.3166,1.3167,1.3175,1.3233,1.325,1.3255,1.3316,1.3278,1.3281,1.3284,1.3285,1.3412,1.3413,0,0,0,0,0,0,1.3018,1.3031,1.3129,1.3134,1.3072,1.3125,1.3134,1.3157,1.3202,1.3208,1.3176,1.3176,1.3244,1.3251,1.3258,1.331,1.3282,1.3286,1.3288,1.3411,1.3413,1.3414,0,0,0,0,0,0,1.3015,1.3027,1.3126,1.3083,1.3096,1.3128,1.3154,1.3159,1.3176,1.321,1.3215,1.3188,1.3243,1.3253,1.3296,1.3313,1.3287,1.3291,1.341,1.3412,1.3413,1.3415,0,0,0,0,0,0,1.3011,1.3026,1.3043,1.3083,1.3098,1.3164,1.3155,1.3161,1.3182,1.3183,1.3222,1.3227,1.3243,1.329,1.33,1.3318,1.3294,1.3409,1.3411,1.3413,1.3413,1.3416,1.3419,0,0,0,0,0,1.3007,1.304,1.3044,1.3056,1.312,1.3165,1.3173,1.3191,1.3184,1.3201,1.3222,1.3226,1.331,1.3295,1.3305,1.3325,1.3408,1.341,1.3412,1.3412,1.3416,1.3419,0,0,0,0,0,0,1.3001,1.3046,1.305,1.3098,1.3128,1.3167,1.3189,1.3195,1.3226,1.3225,1.3246,1.3254,1.3296,1.3315,1.3297,1.3368,1.3358,1.3363,1.3354,1.3358,1.336,1.3354,1.3297,0,0,0,0,0,1.3005,1.3038,1.3076,1.3114,1.3129,1.3156,1.3176,1.3188,1.3219,1.3231,1.3256,1.3285,1.3318,1.3339,1.3371,1.3416,1.3424,1.3435,1.3437,1.344,1.3443,1.3467,1.3472,1.3422,1.3422,1.3422,0,0,1.3014,1.3043,1.3063,1.3114,1.3138,1.317,1.3167,1.3202,1.3226,1.3236,1.3278,1.3298,1.3331,1.3376,1.3396,1.3392,1.3459,1.3443,1.3444,1.3447,1.347,1.3475,1.3479,1.3423,1.3423,1.3423,0,0,1.3048,1.3073,1.3108,1.3132,1.3169,1.3186,1.3195,1.3233,1.3246,1.3289,1.3297,1.3326,1.3382,1.3405,1.3425,1.3466,1.347,1.3476,1.349,1.3513,1.3517,1.352,1.3534,1.3539,1.3479,1.3479,1.3479,0,1.3054,1.3105,1.3124,1.3159,1.3181,1.3192,1.3226,1.3249,1.3294,1.3308,1.3303,1.3373,1.3397,1.3446,1.3456,1.3472,1.3481,1.3471,1.3515,1.3519,1.3522,1.3535,1.3541,1.348,1.348,1.348,1.348,0,1.311,1.3145,1.3168,1.3212,1.3236,1.327,1.3294,1.3316,1.3326,1.3344,1.3386,1.3415,1.3453,1.3465,1.3475,1.3516,1.3512,1.3511,1.3501,1.3527,1.354,1.3545,1.348,1.348,1.348,1.348,0,0,1.3142,1.3196,1.3204,1.3223,1.3264,1.3291,1.3325,1.3362,1.338,1.3411,1.3439,1.3486,1.3485,1.3507,1.3519,1.3539,1.3569,1.3535,1.3537,1.354,1.3614,1.3614,1.362,1.3572,1.3573,1.3574,1.3611,0,1.3179,1.3242,1.326,1.3312,1.3343,1.3354,1.3384,1.3411,1.3429,1.3458,1.3477,1.3509,1.3506,1.3519,1.354,1.3561,1.3584,1.3558,1.3597,1.3599,1.3588,1.3627,1.3627,1.3661,1.3616,1.3617,1.3618,0,1.3232,1.3263,1.3318,1.3354,1.3368,1.3394,1.3429,1.3457,1.3488,1.3499,1.3523,1.3533,1.3568,1.3557,1.3605,1.3587,1.3604,1.3617,1.3619,1.3622,1.3609,1.3631,1.3672,1.3677,1.3626,1.3625,1.3625,0,1.3248,1.3304,1.3344,1.336,1.3404,1.3422,1.344,1.3471,1.3491,1.3522,1.3535,1.3569,1.3587,1.3613,1.3631,1.3622,1.3677,1.3668,1.3686,1.3686,1.3697,1.3696,1.3741,1.3709,1.3709,1.3709,1.3709,0,1.3287,1.332,1.3352,1.3376,1.3413,1.3433,1.3469,1.3488,1.3514,1.3542,1.3553,1.3579,1.3602,1.363,1.3645,1.3682,1.369,1.3699,1.3703,1.3698,1.3696,1.3709,1.3706,1.3711,1.371,1.371,1.371,0,1.3311,1.3334,1.3378,1.3415,1.3425,1.3451,1.3482,1.3506,1.3523,1.3558,1.3567,1.3595,1.3629,1.365,1.3693,1.3703,1.3742,1.3745,1.3732,1.3733,1.375,1.3748,1.3804,1.3812,1.3776,1.3776,1.3776,0,1.3335,1.336,1.34,1.3419,1.3438,1.347,1.3491,1.3512,1.3533,1.357,1.3589,1.3623,1.3652,1.3705,1.3729,1.3761,1.3764,1.3782,1.3769,1.3763,1.3763,1.3761,1.3763,1.3784,1.3784,1.3784,1.3784,0,1.3373,1.3383,1.3413,1.3448,1.3473,1.3501,1.3529,1.3544,1.3569,1.3592,1.3627,1.3649,1.3693,1.3727,1.3761,1.3779,1.3786,1.3788,1.3794,1.3789,1.378,1.3784,1.3737,1.3787,1.3787,1.3786,1.3786,1.3786,1.3397,1.342,1.3451,1.3484,1.3507,1.3533,1.3557,1.3577,1.3607,1.3644,1.3655,1.3691,1.372,1.3767,1.3786,1.3814,1.3811,1.382,1.3822,1.3824,1.3823,1.3776,1.382,1.382,1.382,1.382,1.382,0,1.3435,1.3456,1.3486,1.3525,1.355,1.3555,1.3586,1.3607,1.3638,1.3666,1.3694,1.3733,1.3766,1.3791,1.3825,1.3842,1.3846,1.385,1.3848,1.3852,1.3824,1.3815,1.3846,1.3846,1.3846,1.3846,1.3846,1.3846,1.3458,1.3496,1.3509,1.3559,1.3579,1.3615,1.3632,1.3655,1.3677,1.372,1.3747,1.3764,1.3791,1.3826,1.3855,1.3862,1.3873,1.3877,1.3884,1.3857,1.3854,1.3851,1.3843,1.3879,1.388,1.391,1.391,1.391]},{"header":{"parameterUnit":"m.s-1","parameterCategory":1,"la1":30.2991,"la2":30.254,"lo1":-89.0895,"lo2":-89.0444,"dy":0.0017,"dx":0.0017,"nx":28,"ny":28,"refTime":"2024-03-19T09:00:00:Z","depth":0,"parameterNumber":3,"parameterNumberName":"V-component_of_WINDS"},"data":[0,0,0,0,0,0,0,0,0,0,0,0,0,0,0,0,0,0,0,0,0,0,0,0,0,0,0,0,0,0,0,0,0,0,0,0,0,0,0,0,0,0,0,0,0,0,0,0,0,0,0,0,0,0,0,0,0,0,-1.9053,-1.9054,0,-1.9144,-1.9145,-1.9146,-1.9157,-1.9156,-1.9155,-1.9155,-1.9247,-1.925,-1.9253,0,0,0,0,0,0,0,0,0,0,0,0,0,-1.8889,-1.8892,-1.9053,-1.9054,-1.9055,-1.9144,-1.9145,-1.9146,-1.9157,-1.9156,-1.9155,-1.9154,-1.9246,-1.925,-1.9254,0,0,0,0,0,0,0,0,0,0,0,0,0,-1.8968,-1.8893,-1.9053,-1.9072,-1.9074,-1.9144,-1.9145,-1.9147,-1.9158,-1.9156,-1.9155,-1.9154,-1.9245,-1.9249,-1.9254,-1.9311,0,0,-1.9269,-1.9272,0,0,0,0,0,0,0,0,-1.8964,-1.8974,-1.9068,-1.907,-1.9073,-1.9138,-1.9121,-1.9202,-1.9158,-1.9126,-1.9155,-1.9153,-1.9212,-1.9219,-1.9239,-1.9316,-1.932,-1.927,-1.9273,-1.9275,-1.9276,0,0,0,0,0,0,0,-1.8958,-1.897,-1.9089,-1.9069,-1.9073,-1.9075,-1.9085,-1.9137,-1.9175,-1.9129,-1.913,-1.914,-1.9213,-1.9234,-1.9242,-1.9321,-1.927,-1.9274,-1.9277,-1.9279,-1.945,-1.9451,0,0,0,0,0,0,-1.8949,-1.8966,-1.9086,-1.9092,-1.9014,-1.9079,-1.909,-1.9119,-1.9175,-1.9182,-1.9141,-1.914,-1.9227,-1.9236,-1.9245,-1.9316,-1.9275,-1.928,-1.9282,-1.9448,-1.945,-1.9452,0,0,0,0,0,0,-1.8946,-1.896,-1.9083,-1.9029,-1.9045,-1.9084,-1.9115,-1.9121,-1.9142,-1.9184,-1.9191,-1.9156,-1.9226,-1.9238,-1.9295,-1.9319,-1.9282,-1.9286,-1.9446,-1.9449,-1.9451,-1.9457,0,0,0,0,0,0,-1.8941,-1.8959,-1.8981,-1.903,-1.9048,-1.9131,-1.9117,-1.9124,-1.9151,-1.9151,-1.92,-1.9207,-1.9226,-1.9288,-1.93,-1.9325,-1.929,-1.9444,-1.9448,-1.945,-1.9455,-1.946,-1.9463,0,0,0,0,0,-1.8935,-1.8978,-1.8982,-1.8996,-1.9076,-1.9132,-1.9143,-1.9164,-1.9153,-1.9175,-1.9202,-1.9205,-1.9315,-1.9293,-1.9307,-1.9334,-1.9443,-1.9447,-1.945,-1.9453,-1.9459,-1.9463,0,0,0,0,0,0,-1.8931,-1.8985,-1.8989,-1.905,-1.9086,-1.9134,-1.9163,-1.9169,-1.921,-1.9208,-1.9232,-1.9243,-1.9299,-1.9323,-1.9298,-1.9393,-1.9378,-1.9384,-1.9375,-1.9381,-1.9385,-1.9378,-1.9294,0,0,0,0,0,-1.8937,-1.8978,-1.9024,-1.9073,-1.9091,-1.9124,-1.9149,-1.9163,-1.9202,-1.9217,-1.9248,-1.9286,-1.9329,-1.9356,-1.9398,-1.9459,-1.947,-1.9485,-1.9489,-1.9492,-1.9497,-1.9531,-1.9538,-1.9464,-1.9464,-1.9463,0,0,-1.895,-1.8985,-1.9009,-1.9073,-1.9103,-1.9145,-1.9137,-1.9182,-1.9213,-1.9224,-1.928,-1.9304,-1.9348,-1.9407,-1.9435,-1.9428,-1.952,-1.9497,-1.9499,-1.9502,-1.9536,-1.9543,-1.9549,-1.9466,-1.9466,-1.9465,0,0,-1.8995,-1.9025,-1.907,-1.91,-1.9146,-1.9168,-1.9179,-1.9226,-1.9243,-1.9299,-1.9308,-1.9346,-1.942,-1.9451,-1.9476,-1.9534,-1.9538,-1.9547,-1.9568,-1.9602,-1.9607,-1.9613,-1.9633,-1.964,-1.9552,-1.9552,-1.9552,0,-1.9005,-1.9069,-1.9091,-1.9137,-1.9164,-1.9177,-1.9222,-1.925,-1.9307,-1.9326,-1.9318,-1.9411,-1.9441,-1.9508,-1.9523,-1.9543,-1.9556,-1.9541,-1.9605,-1.961,-1.9616,-1.9636,-1.9643,-1.9553,-1.9553,-1.9553,-1.9553,0,-1.9079,-1.9123,-1.9154,-1.9209,-1.924,-1.9285,-1.9315,-1.9344,-1.9355,-1.9378,-1.9436,-1.9473,-1.9522,-1.954,-1.9551,-1.9608,-1.9603,-1.96,-1.9585,-1.9623,-1.9642,-1.965,-1.9554,-1.9554,-1.9554,-1.9553,0,0,-1.9122,-1.919,-1.9201,-1.9226,-1.9279,-1.9313,-1.9359,-1.9408,-1.9433,-1.9472,-1.9511,-1.9573,-1.9571,-1.96,-1.9615,-1.9644,-1.9688,-1.9637,-1.9639,-1.9645,-1.9754,-1.9755,-1.9764,-1.9691,-1.9693,-1.9694,-1.975,0,-1.9172,-1.9254,-1.9277,-1.9346,-1.9387,-1.94,-1.944,-1.9477,-1.95,-1.9538,-1.9564,-1.9608,-1.9601,-1.9619,-1.9648,-1.9676,-1.971,-1.9673,-1.9728,-1.9729,-1.9715,-1.9774,-1.9776,-1.9826,-1.9758,-1.9759,-1.976,0,-1.9242,-1.9283,-1.9357,-1.9404,-1.9422,-1.9458,-1.9505,-1.9542,-1.9584,-1.9598,-1.9631,-1.9644,-1.9692,-1.9676,-1.9743,-1.9717,-1.9741,-1.9758,-1.9761,-1.9766,-1.9746,-1.978,-1.9843,-1.985,-1.9772,-1.9771,-1.977,0,-1.9266,-1.934,-1.9393,-1.9415,-1.9472,-1.9496,-1.9521,-1.9562,-1.959,-1.9632,-1.965,-1.9697,-1.9722,-1.9758,-1.9782,-1.9768,-1.9848,-1.9833,-1.9861,-1.986,-1.9876,-1.9875,-1.9943,-1.9893,-1.9893,-1.9893,-1.9892,0,-1.9319,-1.9363,-1.9405,-1.9437,-1.9488,-1.9514,-1.9563,-1.9588,-1.9624,-1.9663,-1.9677,-1.9712,-1.9744,-1.9783,-1.9803,-1.9856,-1.9867,-1.988,-1.9885,-1.9879,-1.9877,-1.9894,-1.9891,-1.9895,-1.9894,-1.9894,-1.9894,0,-1.9353,-1.9383,-1.9442,-1.9492,-1.9505,-1.954,-1.9582,-1.9615,-1.9639,-1.9687,-1.97,-1.9738,-1.9785,-1.9814,-1.9874,-1.9888,-1.9946,-1.9949,-1.9932,-1.9933,-1.996,-1.9957,-2.0041,-2.0053,-1.9995,-1.9996,-1.9996,0,-1.9385,-1.942,-1.9473,-1.95,-1.9525,-1.9568,-1.9597,-1.9625,-1.9654,-1.9705,-1.9732,-1.9781,-1.9821,-1.9897,-1.9929,-1.9976,-1.998,-2.0007,-1.9987,-1.998,-1.998,-1.9977,-1.9981,-2.0009,-2.001,-2.001,-2.0011,0,-1.9438,-1.9451,-1.9493,-1.954,-1.9575,-1.9613,-1.9651,-1.9672,-1.9706,-1.9739,-1.9788,-1.982,-1.9882,-1.993,-1.998,-2.0005,-2.0014,-2.0017,-2.0026,-2.0019,-2.0007,-2.0014,-1.994,-2.0014,-2.0014,-2.0014,-2.0014,-2.0013,-1.9472,-1.9503,-1.9546,-1.9592,-1.9624,-1.966,-1.9693,-1.9722,-1.9763,-1.9816,-1.983,-1.9881,-1.9923,-1.9991,-2.0018,-2.0059,-2.0054,-2.0067,-2.007,-2.0073,-2.0073,-2.0002,-2.0068,-2.0068,-2.0068,-2.0068,-2.0068,0,-1.9526,-1.9554,-1.9596,-1.965,-1.9686,-1.9692,-1.9735,-1.9765,-1.981,-1.9848,-1.9888,-1.9945,-1.9992,-2.0029,-2.0078,-2.0103,-2.0109,-2.0115,-2.0113,-2.0119,-2.0075,-2.0062,-2.011,-2.011,-2.011,-2.011,-2.011,-2.011,-1.9558,-1.9611,-1.963,-1.9699,-1.9728,-1.9778,-1.9802,-1.9835,-1.9867,-1.9929,-1.9969,-1.9993,-2.0031,-2.0083,-2.0126,-2.0136,-2.0153,-2.0159,-2.0169,-2.0127,-2.0122,-2.0118,-2.0106,-2.0163,-2.0163,-2.021,-2.0211,-2.0211]}]]